Tracking 19574 objects as of 16-Feb-2019
HD Live streaming from Space Station
objects crossing your sky now

TOMSK-TPU 120

Track TOMSK-TPU 120 now!
10-day predictions
TOMSK-TPU 120 is classified as:


NORAD ID: 42910
Int'l Code: 1998-067MZ
Perigee: 351.8 km
Apogee: 357.8 km
Inclination: 51.6 °
Period: 91.5 minutes
Semi major axis: 6725 km
RCS: Unknown
Launch date: November 20, 1998
Source: Commonwealth of Independent States (former USSR) (CIS)
Launch site: TYURATAM MISSILE AND SPACE COMPLEX (TTMTR)

Uplink (MHz):
Downlink (MHz): 437.025
Beacon (MHz): 145.800
Mode: 9600bps FSK Voice
Call sign: RS4S
Status: Inactive

aabbcc
Your satellite tracking list
Your tracking list is empty




NASA's NSSDC Master Catalog

Two Line Element Set (TLE):
1 42910U 98067MZ  19047.40990193  .00029608  00000-0  20756-3 0  9990
2 42910  51.6335 201.6370 0004475  60.3311  34.7045 15.73938530 85712
Source of the keplerian elements: AMSAT